Weather History for KGYB - November, 2012

Change the Weather History Date:

Saturday, November 3, 2012

  Actual Average (KAUS) Record (KAUS)
Temperature  
Mean Temperature 68 °F 63 °F  
Max Temperature 77 °F 76 °F 87 °F (1994)
Min Temperature 60 °F 50 °F 26 °F (1951)
Degree Days  
Heating Degree Days 0 4  
Month to date heating degree days 12  
Since 1 July heating degree days 63  
Cooling Degree Days 4 2  
Month to date cooling degree days 7  
Year to date cooling degree days 2710  
Growing Degree Days 18 (Base 50)    
Moisture  
Dew Point 63 °F    
Average Humidity 89    
Maximum Humidity 100    
Minimum Humidity 53    
Precipitation  
Precipitation 0.20 in 0.11 in 1.09 in (2000)
Month to date precipitation 0.35  
Year to date precipitation 30.31  
Snow  
Snow 0.00 in - - ()
Month to date snowfall  
Since 1 July snowfall  
Since 1 September snowfall  
Snow Depth -    
Sea Level Pressure  
Sea Level Pressure 30.08 in    
Wind  
Wind Speed 3 mph (SSE)    
Max Wind Speed 10 mph    
Max Gust Speed -    
Visibility 7 miles    
Events Fog , Rain    
T = Trace of Precipitation, MM = Missing Value Source: NWS Daily Summary

Daily Weather History Graph

Daily Weather History Graph

Search for Another Location

Airport or City:

Trip Planner

Search our weather history database for the weather conditions in past years. The results will help you decide how hot, cold, wet, or windy it might be!

Date:

Astronomy

Nov. 03, 2012 Rise Set
Actual Time 7:43 AM CDT 6:38 PM CDT
Civil Twilight 7:19 AM CDT 7:03 PM CDT
Nautical Twilight 6:50 AM CDT 7:31 PM CDT
Astronomical Twilight 6:22 AM CDT 7:59 PM CDT
Moon 10:27 PM CDT (11/3) 11:41 AM CDT (11/3)
Length of Visible Light 11h 44m
Length of Day
10h 54m
Waning Gibbous, 80% of the Moon is Illuminated
Nov 3
Waning Gibbous
Nov 6
Last Quarter
Nov 13
New
Nov 20
First Quarter
Nov 28
Full

Hourly Weather History & Observations

Time (CDT) Temp. Dew Point Humidity Pressure Visibility Wind Dir Wind Speed Gust Speed Precip Events Conditions
12:15 AM 68.0 °F 64.4 °F 88% 30.05 in 10.0 mi South 4.6 mph - N/A   Clear
12:35 AM 66.2 °F 64.4 °F 94% 30.05 in 10.0 mi SSE 3.5 mph - N/A   Clear
12:55 AM 66.2 °F 64.4 °F 94% 30.05 in 10.0 mi Calm Calm - N/A   Clear
1:15 AM 66.2 °F 64.4 °F 94% 30.04 in 10.0 mi SSE 3.5 mph - N/A   Clear
1:55 AM 64.4 °F 64.4 °F 100% 30.05 in 10.0 mi Calm Calm - N/A   Clear
2:15 AM 64.4 °F 64.4 °F 100% 30.05 in 10.0 mi Calm Calm - N/A   Clear
2:35 AM 64.4 °F 64.4 °F 100% 30.05 in 10.0 mi Calm Calm - N/A   Scattered Clouds
2:55 AM 64.4 °F 64.4 °F 100% 30.05 in 7.0 mi Calm Calm - N/A   Scattered Clouds
3:15 AM 64.4 °F 64.4 °F 100% 30.05 in 10.0 mi Calm Calm - N/A   Scattered Clouds
3:35 AM 64.4 °F 64.4 °F 100% 30.05 in 7.0 mi Calm Calm - N/A   Scattered Clouds
3:55 AM 64.4 °F 62.6 °F 94% 30.05 in 4.0 mi Calm Calm - N/A   Clear
4:15 AM 64.4 °F 62.6 °F 94% 30.05 in 4.0 mi Calm Calm - N/A   Clear
4:35 AM 62.6 °F 62.6 °F 100% 30.05 in 2.5 mi Calm Calm - N/A   Scattered Clouds
4:55 AM 62.6 °F 62.6 °F 100% 30.05 in 0.8 mi Calm Calm - N/A   Mostly Cloudy
5:15 AM 62.6 °F 62.6 °F 100% 30.05 in 1.0 mi South 3.5 mph - N/A   Mostly Cloudy
5:35 AM 62.6 °F 62.6 °F 100% 30.06 in 0.5 mi Calm Calm - N/A Fog Fog
5:55 AM 62.6 °F 62.6 °F 100% 30.06 in 0.2 mi Calm Calm - N/A Fog Fog
6:15 AM 62.6 °F 62.6 °F 100% 30.06 in 0.2 mi Calm Calm - N/A Fog Fog
6:35 AM 62.6 °F 62.6 °F 100% 30.06 in 0.2 mi Calm Calm - N/A Fog Fog
6:55 AM 62.6 °F 62.6 °F 100% 30.07 in 0.2 mi Calm Calm - N/A Fog Fog
7:15 AM 62.6 °F 62.6 °F 100% 30.08 in 0.2 mi Calm Calm - N/A Fog Fog
7:35 AM 62.6 °F 62.6 °F 100% 30.08 in 0.5 mi Calm Calm - N/A Fog Fog
7:55 AM 64.4 °F 62.6 °F 94% 30.09 in 4.0 mi Calm Calm - N/A   Mostly Cloudy
8:15 AM 62.6 °F 62.6 °F 100% 30.10 in 0.2 mi Calm Calm - N/A Fog Fog
8:35 AM 64.4 °F 64.4 °F 100% 30.10 in 3.0 mi Calm Calm - N/A   Scattered Clouds
8:55 AM 66.2 °F 64.4 °F 94% 30.11 in 4.0 mi Calm Calm - N/A   Clear
9:15 AM 68.0 °F 66.2 °F 94% 30.11 in 7.0 mi Calm Calm - N/A   Clear
9:35 AM 68.0 °F 68.0 °F 100% 30.12 in 10.0 mi South 3.5 mph - N/A   Scattered Clouds
9:55 AM 69.8 °F 69.8 °F 100% 30.12 in 10.0 mi SSW 3.5 mph - N/A   Scattered Clouds
10:15 AM 69.8 °F 69.8 °F 100% 30.12 in 10.0 mi SSW 4.6 mph - N/A   Scattered Clouds
10:35 AM 73.4 °F 69.8 °F 88% 30.12 in 10.0 mi South 5.8 mph - N/A   Scattered Clouds
10:55 AM 75.2 °F 68.0 °F 78% 30.13 in 10.0 mi SSW 6.9 mph - N/A   Scattered Clouds
11:15 AM 77.0 °F 66.2 °F 69% 30.13 in 10.0 mi SSW 8.1 mph - N/A   Mostly Cloudy
11:35 AM 77.0 °F 66.2 °F 69% 30.13 in 10.0 mi SSW 6.9 mph - N/A   Scattered Clouds
11:55 AM 77.0 °F 66.2 °F 69% 30.12 in 10.0 mi South 8.1 mph - N/A   Clear
12:15 PM 73.4 °F 64.4 °F 73% 30.11 in 10.0 mi SSW 4.6 mph - N/A   Clear
12:55 PM 73.4 °F 62.6 °F 69% 30.10 in 10.0 mi SSE 5.8 mph - N/A Rain Light Rain
1:15 PM 73.4 °F 60.8 °F 65% 30.09 in 10.0 mi SE 4.6 mph - N/A   Scattered Clouds
1:35 PM 73.4 °F 62.6 °F 69% 30.09 in 10.0 mi SE 6.9 mph - N/A Rain Light Rain
1:55 PM 77.0 °F 59.0 °F 54% 30.07 in 10.0 mi SE 4.6 mph - N/A   Clear
2:15 PM 75.2 °F 57.2 °F 53% 30.07 in 10.0 mi ESE 6.9 mph - N/A   Clear
2:35 PM 73.4 °F 57.2 °F 57% 30.06 in 10.0 mi East 9.2 mph - N/A Rain Light Rain
2:55 PM 73.4 °F 60.8 °F 65% 30.07 in 7.0 mi SW 3.5 mph - N/A Rain Rain
3:15 PM 73.4 °F 60.8 °F 65% 30.06 in 10.0 mi ESE 4.6 mph - 0.01 in   Mostly Cloudy
3:35 PM 71.6 °F 60.8 °F 69% 30.07 in 10.0 mi SE 8.1 mph - 0.01 in   Mostly Cloudy
3:55 PM 69.8 °F 60.8 °F 73% 30.06 in 10.0 mi SE 6.9 mph - 0.01 in   Overcast
4:15 PM 69.8 °F 60.8 °F 73% 30.08 in 10.0 mi SE 10.4 mph - N/A Rain Light Rain
4:35 PM 66.2 °F 62.6 °F 88% 30.10 in 7.0 mi SSW 9.2 mph - 0.04 in Rain Light Rain
4:55 PM 64.4 °F 62.6 °F 94% 30.07 in 2.0 mi SE 8.1 mph - 0.06 in Rain Heavy Rain
5:15 PM 64.4 °F 62.6 °F 94% 30.06 in 7.0 mi ESE 9.2 mph - 0.02 in Rain Light Rain
5:35 PM 66.2 °F 64.4 °F 94% 30.05 in 10.0 mi SSE 6.9 mph - 0.04 in   Scattered Clouds
5:55 PM 68.0 °F 64.4 °F 88% 30.05 in 10.0 mi SSE 3.5 mph - 0.04 in   Clear
6:15 PM 68.0 °F 64.4 °F 88% 30.05 in 10.0 mi Calm Calm - 0.01 in   Clear
6:35 PM 66.2 °F 62.6 °F 88% 30.07 in 10.0 mi ENE 4.6 mph - 0.02 in   Clear
6:55 PM 64.4 °F 62.6 °F 94% 30.07 in 10.0 mi East 4.6 mph - 0.02 in   Clear
7:15 PM 64.4 °F 62.6 °F 94% 30.08 in 10.0 mi Calm Calm - 0.01 in   Clear
7:35 PM 64.4 °F 62.6 °F 94% 30.08 in 10.0 mi Calm Calm - 0.02 in   Clear
7:55 PM 64.4 °F 62.6 °F 94% 30.09 in 7.0 mi Calm Calm - 0.02 in   Clear
8:15 PM 62.6 °F 60.8 °F 94% 30.09 in 3.0 mi Calm Calm - 0.01 in   Clear
8:55 PM 62.6 °F 62.6 °F 100% 30.12 in 10.0 mi ESE 5.8 mph - 0.02 in   Clear
9:15 PM 62.6 °F 60.8 °F 94% 30.11 in 10.0 mi Calm Calm - 0.01 in   Clear
9:55 PM 62.6 °F 60.8 °F 94% 30.11 in 10.0 mi Calm Calm - 0.02 in   Clear
10:15 PM 60.8 °F 60.8 °F 100% 30.11 in 3.0 mi Calm Calm - N/A   Clear
10:35 PM 60.8 °F 60.8 °F 100% 30.10 in 0.8 mi Calm Calm - N/A   Mist
10:55 PM 60.8 °F 60.8 °F 100% 30.10 in 7.0 mi Calm Calm - N/A   Clear
11:15 PM 60.8 °F 60.8 °F 100% 30.09 in 7.0 mi Calm Calm - N/A   Clear
11:35 PM 60.8 °F 59.0 °F 94% 30.10 in 4.0 mi Calm Calm - 0.01 in   Clear
11:55 PM 60.8 °F 60.8 °F 100% 30.09 in 5.0 mi Calm Calm - 0.01 in   Clear